Location: Katzenstein
(51.7484°N, 10.2155°E)
Time: 07:41:49
(UTC+00:00)

SL-16 R/B - Pass Details

Date: 17 February 2020
Orbit: 843 x 847 km, 71.0° (Epoch: 30 March)

Event Time Altitude Azimuth Distance (km) Brightness Sun altitude
Exits shadow 04:41:56 24° 237° (WSW) 1,690 3.3 -17.4°
Maximum altitude 04:45:17 56° 307° (NW) 1,005 2.3 -16.9°
Drops below altitude 10° 04:50:52 10° 25° (NNE) 2,478 5.0 -16.1°
Sets 04:53:23 0° 30° (NNE) 3,416 5.8 -15.7°
